Regional Weather Roundup
Issued by NWS

Home | Current Version | Previous Version | Graphics & Text | Print | Product List | Glossary Off
Versions: 1 2 3 4 5 6 7 8 9 10 11 12 13 14 15 16 17 18 19 20 21 22 23 24 25 26 27 28 29 30 31 32 33 34 35 36 37 38 39 40 41 42 43 44 45 46 47 48 49 50

000
ASUS43 KTOP 221959
RWRKS

WEATHER ROUNDUP FOR KANSAS
NATIONAL WEATHER SERVICE GOODLAND KS
300 PM CDT TUE APR 22 2014

NOTE:  "FAIR" INDICATES FEW OR NO CLOUDS BELOW 12,000 FEET WITH NO
SIGNIFICANT WEATHER AND/OR OBSTRUCTIONS TO VISIBILITY.

KSZ001>006-013>018-027>032-041>047-222100-
NORTHWEST KANSAS

CITY           SKY/WX    TMP DP  RH WIND       PRES   REMARKS
GOODLAND       SUNNY     77  43  29 S32G39    29.89F
HAYS           SUNNY     75  32  20 S25G33    30.00F
HILL CITY      SUNNY     76  35  22 S22G36    29.96F
RUSSELL        SUNNY     76  29  17 S21       30.01F
$$

KSZ061>065-074>080-084>089-222100-
SOUTHWEST KANSAS

CITY           SKY/WX    TMP DP  RH WIND       PRES   REMARKS
DODGE CITY     SUNNY     74  33  22 S25G32    30.02F
ELKHART          N/A     79  45  30 S21         N/A
GARDEN CITY    MOSUNNY   77  36  22 S24G39    29.97F
GREAT BEND     MOSUNNY   77  30  18 S18G26    30.01F
LIBERAL        SUNNY     81  43  26 S22G30    30.01F
$$

KSZ066>073-081>083-090>101-222100-
SOUTHEAST KANSAS

CITY           SKY/WX    TMP DP  RH WIND       PRES   REMARKS
CHANUTE        SUNNY     70  32  24 NE8       30.07F
COFFEYVILLE    SUNNY     72  31  22 VRB3      30.06F
HUTCHINSON     MOSUNNY   76  30  18 SE13G18   30.05F
NEWTON         SUNNY     73  30  20 SE8       30.10F
PARSONS        SUNNY     72  31  22 CALM      30.07F
WICHITA INTL   PTSUNNY   74  31  20 SE8       30.06F
WICHITA JABRA  SUNNY     74  31  20 SE7       30.05F
WINFIELD       SUNNY     75  31  19 E9        30.07F
$$

KSZ007>012-019>026-033>040-048>060-102>105-222100-
NORTHEAST KANSAS

CITY           SKY/WX    TMP DP  RH WIND       PRES   REMARKS
CONCORDIA      MOSUNNY   73  28  18 SE13      30.04F
EMPORIA        SUNNY     69  33  26 E7        30.07F
LAWRENCE       SUNNY     70  31  23 N5        30.07F
MANHATTAN      SUNNY     71  32  23 VRB6      30.06F
OLATHE IND     SUNNY     68  29  23 VRB5      30.08F
OLATHE EXE     SUNNY     66  29  24 MISG      30.07F
SALINA         MOSUNNY   76  30  18 E13       30.05F
TOPEKA BILLARD SUNNY     70  33  25 VRB6      30.08F
TOPEKA FORBES  SUNNY     70  33  25 VRB5      30.08F
$$



USA.gov is the U.S. government's official web portal to all federal, state and local government web resources and services.